Dodge City, KS

5:01 PM CDT on August 30, 2016 (GMT -0500)
Dodge City Regional

Weather History for KDDC - May, 2013

Change the Weather History Date:

Wednesday, May 1, 2013

  Actual Average Record
Temperature  
Mean Temperature 40 °F -  
Max Temperature 66 °F 69 °F 98 °F (1992)
Min Temperature 32 °F 45 °F 19 °F (1909)
Degree Days  
Heating Degree Days 25    
Moisture  
Dew Point 38 °F    
Average Humidity 86    
Maximum Humidity 93    
Minimum Humidity 56    
Precipitation  
Precipitation 0.01 in - - ()
Sea Level Pressure  
Sea Level Pressure 30.08 in    
Wind  
Wind Speed 24 mph (NNE)    
Max Wind Speed 32 mph    
Max Gust Speed 46 mph    
Visibility 5 miles    
Events Rain , Snow    
Averages and records for this station are not official NWS values.
T = Trace of Precipitation, MM = Missing Value Source: NWS Daily Summary

Daily Weather History Graph

Daily Weather History Graph

Search for Another Location

Airport or City:

Trip Planner

Search our weather history database for the weather conditions in past years. The results will help you decide how hot, cold, wet, or windy it might be!

Date:

Astronomy

May. 01, 2013 Rise Set
Actual Time 6:43 AM CDT 8:30 PM CDT
Civil Twilight 6:15 AM CDT 8:58 PM CDT
Nautical Twilight 5:41 AM CDT 9:33 PM CDT
Astronomical Twilight 5:05 AM CDT 10:09 PM CDT
Moon 1:41 AM CDT (5/1) 12:24 PM CDT (5/1)
Length of Visible Light 14h 43m
Length of Day
13h 46m
Waning Gibbous, 59% of the Moon is Illuminated
May 1
Waning Gibbous
May 2
Last Quarter
May 9
New
May 17
First Quarter
May 24
Full

Hourly Weather History & Observations

Time (CDT) Temp. Windchill Dew Point Humidity Pressure Visibility Wind Dir Wind Speed Gust Speed Precip Events Conditions
12:52 AM 66.0 °F - 54.0 °F 65% 29.59 in 10.0 mi SSE 21.9 mph 29.9 mph N/A   Clear
1:52 AM 64.0 °F - 55.0 °F 73% 29.59 in 10.0 mi SSE 21.9 mph 27.6 mph N/A   Clear
2:52 AM 63.0 °F - 55.9 °F 78% 29.60 in 9.0 mi SSE 18.4 mph - N/A   Clear
3:49 AM 62.6 °F - 55.4 °F 77% 29.76 in 9.0 mi North 4.6 mph - N/A   Mostly Cloudy
3:52 AM 63.0 °F - 55.9 °F 78% 29.67 in 9.0 mi Calm Calm - N/A   Mostly Cloudy
4:52 AM 63.0 °F - 55.9 °F 78% 29.70 in 8.0 mi NE 4.6 mph - N/A   Overcast
5:52 AM 53.1 °F - 39.0 °F 59% 29.74 in 10.0 mi NNE 25.3 mph 31.1 mph N/A   Overcast
6:52 AM 48.0 °F - 39.9 °F 74% 29.81 in 10.0 mi North 26.5 mph 34.5 mph N/A   Overcast
7:50 AM 44.6 °F 35.3 °F 39.2 °F 81% 29.93 in 10.0 mi NNE 26.5 mph 40.3 mph N/A   Overcast
7:52 AM 45.0 °F 35.2 °F 39.0 °F 80% 29.88 in 10.0 mi NNE 29.9 mph 40.3 mph N/A   Overcast
8:35 AM 44.6 °F 34.4 °F 39.2 °F 81% 29.96 in 10.0 mi NNE 32.2 mph 42.6 mph N/A   Overcast
8:52 AM 44.1 °F 34.6 °F 39.0 °F 82% 29.93 in 10.0 mi NNE 26.5 mph 41.4 mph N/A   Overcast
9:52 AM 43.0 °F 32.4 °F 39.9 °F 89% 29.97 in 7.0 mi NNE 31.1 mph 40.3 mph N/A   Overcast
10:52 AM 42.1 °F 31.0 °F 39.0 °F 89% 30.01 in 3.0 mi NNE 32.2 mph 41.4 mph 0.00 in Rain Light Rain
11:12 AM 41.0 °F 30.5 °F 39.2 °F 93% 30.06 in 2.0 mi NNE 26.5 mph 40.3 mph 0.00 in Rain Light Rain
11:52 AM 41.0 °F 29.7 °F 37.9 °F 89% 30.05 in 1.8 mi NNE 31.1 mph 41.4 mph 0.00 in Rain Light Rain
12:03 PM 41.0 °F 30.0 °F 37.4 °F 87% 30.08 in 2.0 mi NNE 28.8 mph 38.0 mph 0.00 in Rain Light Rain
12:15 PM 41.0 °F 29.8 °F 37.4 °F 87% 30.09 in 1.8 mi North 29.9 mph 36.8 mph 0.00 in Rain Light Rain
12:44 PM 39.2 °F 28.3 °F 37.4 °F 93% 30.10 in 2.0 mi NNE 25.3 mph 41.4 mph 0.00 in Rain Light Rain
12:52 PM 39.9 °F 29.2 °F 37.0 °F 89% 30.09 in 2.0 mi NNE 25.3 mph 41.4 mph 0.00 in Rain Light Rain
1:04 PM 39.2 °F 27.6 °F 37.4 °F 93% 30.11 in 1.5 mi North 28.8 mph 38.0 mph 0.00 in Rain Light Rain
1:39 PM 39.2 °F 27.4 °F 37.4 °F 93% 30.12 in 2.0 mi North 29.9 mph 41.4 mph 0.00 in Rain Light Rain
1:52 PM 39.0 °F 27.2 °F 37.0 °F 93% 30.12 in 2.5 mi North 29.9 mph 38.0 mph 0.00 in Rain Light Rain
2:00 PM 39.2 °F 27.4 °F 35.6 °F 87% 30.14 in 2.0 mi North 29.9 mph 40.3 mph 0.00 in Rain Light Rain
2:16 PM 39.2 °F 27.2 °F 35.6 °F 87% 30.14 in 3.0 mi NNE 31.1 mph 42.6 mph 0.00 in Rain Light Rain
2:25 PM 39.2 °F 27.4 °F 35.6 °F 87% 30.14 in 2.5 mi North 29.9 mph 40.3 mph 0.00 in Rain Light Rain
2:32 PM 37.4 °F 24.8 °F 35.6 °F 93% 30.14 in 2.5 mi NNE 31.1 mph 41.4 mph 0.00 in Rain Light Rain
2:37 PM 39.2 °F 27.6 °F 35.6 °F 87% 30.15 in 4.0 mi NNE 28.8 mph 39.1 mph 0.00 in Rain Light Rain
2:52 PM 37.9 °F 25.5 °F 36.0 °F 93% 30.15 in 3.0 mi NNE 31.1 mph 42.6 mph 0.00 in Rain Light Rain
3:45 PM 37.4 °F 26.1 °F 35.6 °F 93% 30.18 in 2.5 mi NNE 24.2 mph 39.1 mph 0.00 in Rain Light Rain
3:52 PM 37.0 °F 24.3 °F 35.1 °F 93% 30.17 in 2.0 mi NNE 31.1 mph 41.4 mph 0.00 in Snow Light Snow
4:01 PM 37.4 °F 25.6 °F 35.6 °F 93% 30.18 in 4.0 mi NNE 26.5 mph 36.8 mph 0.00 in   Overcast
4:08 PM 37.4 °F 25.0 °F 35.6 °F 93% 30.18 in 3.0 mi North 29.9 mph 42.6 mph 0.00 in Rain Light Rain
4:37 PM 37.4 °F 25.6 °F 35.6 °F 93% 30.19 in 2.0 mi North 26.5 mph 36.8 mph 0.00 in Snow Light Snow
4:39 PM 37.4 °F 25.9 °F 35.6 °F 93% 30.19 in 1.8 mi North 25.3 mph 36.8 mph 0.00 in Snow Light Snow
4:52 PM 37.0 °F 24.9 °F 34.0 °F 89% 30.18 in 4.0 mi NNE 27.6 mph 41.4 mph 0.00 in   Overcast
5:28 PM 35.6 °F 22.1 °F 33.8 °F 93% 30.20 in 3.0 mi North 32.2 mph 38.0 mph 0.00 in   Overcast
5:33 PM 35.6 °F 22.3 °F 33.8 °F 93% 30.21 in 4.0 mi North 31.1 mph 41.4 mph 0.00 in   Overcast
5:52 PM 35.1 °F 21.6 °F 33.1 °F 92% 30.22 in 4.0 mi North 31.1 mph 41.4 mph 0.00 in   Overcast
6:32 PM 35.6 °F 22.7 °F 33.8 °F 93% 30.23 in 2.5 mi North 28.8 mph 41.4 mph 0.00 in Rain Light Freezing Rain
6:52 PM 35.1 °F 22.2 °F 32.0 °F 89% 30.25 in 2.5 mi NNE 27.6 mph 40.3 mph 0.00 in Rain Light Rain
6:59 PM 35.6 °F 23.0 °F 32.0 °F 87% 30.23 in 3.0 mi NNE 27.6 mph 36.8 mph 0.00 in Rain Light Rain
7:38 PM 33.8 °F 19.9 °F 30.2 °F 87% 30.26 in 2.5 mi North 31.1 mph 42.6 mph 0.00 in   Overcast
7:52 PM 33.1 °F 18.7 °F 30.9 °F 92% 30.30 in 2.5 mi North 32.2 mph 43.7 mph 0.00 in   Overcast
8:00 PM 33.8 °F 21.0 °F 30.2 °F 87% 30.27 in 3.0 mi North 25.3 mph 41.4 mph N/A   Overcast
8:11 PM 33.8 °F 21.0 °F 30.2 °F 87% 30.28 in 2.5 mi North 25.3 mph 34.5 mph 0.00 in Rain Light Rain
8:28 PM 32.0 °F 17.9 °F 30.2 °F 93% 30.28 in 3.0 mi North 28.8 mph 41.4 mph 0.00 in Rain Light Rain
8:52 PM 32.0 °F 17.2 °F 30.0 °F 92% 30.34 in 4.0 mi North 32.2 mph 43.7 mph 0.00 in   Overcast
9:52 PM 32.0 °F 18.6 °F 30.0 °F 92% 30.37 in 4.0 mi North 25.3 mph 43.7 mph 0.00 in   Overcast
10:36 PM 32.0 °F 17.6 °F 30.2 °F 93% 30.36 in 3.0 mi North 29.9 mph 38.0 mph 0.00 in Rain Light Freezing Rain
10:52 PM 32.0 °F 17.6 °F 30.0 °F 92% 30.41 in 4.0 mi North 29.9 mph 46.0 mph 0.00 in Rain Light Freezing Rain
11:52 PM 32.0 °F 17.9 °F 30.0 °F 92% 30.43 in 3.0 mi North 28.8 mph 36.8 mph 0.00 in Rain Light Freezing Rain